Seward, AK

1:14 AM AKST on December 17, 2017 (GMT -0900)
Seward

Weather History for PAWD - October, 2011

Change the Weather History Date:

Monday, October 24, 2011

  Actual Average Record
Temperature  
Mean Temperature 41 °F -  
Max Temperature 46 °F 41 °F 53 °F (1980)
Min Temperature 36 °F 31 °F 18 °F (1970)
Degree Days  
Heating Degree Days 24    
Moisture  
Dew Point 38 °F    
Average Humidity 86    
Maximum Humidity 93    
Minimum Humidity 73    
Precipitation  
Precipitation 1.53 in - - ()
Sea Level Pressure  
Sea Level Pressure 29.60 in    
Wind  
Wind Speed 7 mph (SSE)    
Max Wind Speed 26 mph    
Max Gust Speed 45 mph    
Visibility 6 miles    
Events Rain    
Averages and records for this station are not official NWS values.
T = Trace of Precipitation, MM = Missing Value Source: NWS Daily Summary

Daily Weather History Graph

Daily Weather History Graph

Search for Another Location

Airport or City:

Trip Planner

Search our weather history database for the weather conditions in past years. The results will help you decide how hot, cold, wet, or windy it might be!

Date:

Astronomy

Oct. 24, 2011 Rise Set
Actual Time 8:59 AM AKDT 6:22 PM AKDT
Civil Twilight 8:16 AM AKDT 7:06 PM AKDT
Nautical Twilight 7:27 AM AKDT 7:55 PM AKDT
Astronomical Twilight 6:38 AM AKDT 8:43 PM AKDT
Moon 6:04 AM AKDT (10/24) 5:10 PM AKDT (10/24)
Length of Visible Light 10h 50m
Length of Day
9h 22m
Waning Crescent, 6% of the Moon is Illuminated
Oct 24
Waning Crescent
Oct 26
New
Nov 2
First Quarter
Nov 10
Full
Nov 18
Last Quarter

Hourly Weather History & Observations

Time (AKDT) Temp. Windchill Dew Point Humidity Pressure Visibility Wind Dir Wind Speed Gust Speed Precip Events Conditions
12:17 AM 37.4 °F 34.9 °F 33.8 °F 87% 29.70 in 10.0 mi NNW 3.5 mph - N/A   Mostly Cloudy
12:53 AM 37.9 °F - 35.1 °F 89% 29.70 in 10.0 mi Calm Calm - N/A   Overcast
1:37 AM 37.4 °F - 35.6 °F 93% 29.69 in 10.0 mi Calm Calm - 0.02 in Rain Light Rain
1:53 AM 37.9 °F - 35.1 °F 89% 29.69 in 7.0 mi Calm Calm - 0.03 in Rain Light Rain
2:16 AM 37.4 °F - 35.6 °F 93% 29.68 in 10.0 mi Calm Calm - 0.01 in Rain Light Rain
2:35 AM 37.4 °F - 35.6 °F 93% 29.68 in 7.0 mi Calm Calm - 0.03 in Rain Light Rain
2:53 AM 37.9 °F - 36.0 °F 93% 29.67 in 9.0 mi Calm Calm - 0.04 in Rain Light Rain
3:53 AM 37.9 °F - 35.1 °F 89% 29.68 in 5.0 mi Calm Calm - 0.15 in Rain Rain
4:53 AM 36.0 °F 32.1 °F 33.1 °F 89% 29.67 in 8.0 mi North 4.6 mph - 0.06 in Rain Light Rain
5:53 AM 36.0 °F 33.3 °F 33.1 °F 89% 29.66 in 10.0 mi NNW 3.5 mph - 0.02 in Rain Light Rain
6:53 AM 37.0 °F - 34.0 °F 89% 29.65 in 10.0 mi Calm Calm - 0.01 in   Overcast
7:53 AM 37.0 °F - 35.1 °F 93% 29.64 in 10.0 mi Calm Calm - 0.03 in Rain Light Rain
8:53 AM 37.0 °F - 35.1 °F 93% 29.64 in 10.0 mi Calm Calm - 0.03 in   Overcast
9:45 AM 37.4 °F 33.8 °F 35.6 °F 93% 29.65 in 4.0 mi SSE 4.6 mph - 0.05 in Rain Rain
9:53 AM 37.9 °F 34.4 °F 36.0 °F 93% 29.65 in 4.0 mi South 4.6 mph - 0.08 in Rain Rain
10:03 AM 37.4 °F - 35.6 °F 93% 29.64 in 4.0 mi Calm Calm - 0.01 in Rain Light Rain
11:46 AM 39.2 °F - 37.4 °F 93% 29.63 in 4.0 mi Calm Calm - 0.04 in Rain Light Rain
11:53 AM 39.0 °F - 37.0 °F 93% 29.63 in 3.0 mi Calm Calm - 0.06 in Rain Rain
11:57 AM 39.2 °F - 37.4 °F 93% 29.63 in 2.0 mi Calm Calm - 0.02 in Rain Rain
12:13 PM 39.2 °F - 37.4 °F 93% 29.63 in 5.0 mi Calm Calm - 0.04 in Rain Light Rain
12:40 PM 44.6 °F 37.8 °F 37.4 °F 76% 29.61 in 10.0 mi SSE 15.0 mph 24.2 mph 0.04 in Rain Light Rain
12:53 PM 46.0 °F 38.8 °F 37.9 °F 73% 29.61 in 10.0 mi SSE 18.4 mph 25.3 mph 0.04 in Rain Light Rain
1:02 PM 46.4 °F 39.8 °F 39.2 °F 76% 29.61 in 10.0 mi SSE 16.1 mph 31.1 mph 0.00 in Rain Light Rain
1:37 PM 46.4 °F 40.7 °F 39.2 °F 76% 29.60 in 5.0 mi SSE 12.7 mph 23.0 mph 0.04 in Rain Light Rain
1:53 PM 45.0 °F 38.5 °F 39.9 °F 82% 29.60 in 3.0 mi South 13.8 mph 23.0 mph 0.07 in Rain Light Rain
2:53 PM 46.0 °F 37.6 °F 39.9 °F 79% 29.59 in 4.0 mi SSE 24.2 mph 29.9 mph 0.09 in Rain Rain
3:21 PM 44.6 °F 36.4 °F 37.4 °F 76% 29.60 in 5.0 mi SSE 20.7 mph 34.5 mph 0.04 in Rain Light Rain
3:31 PM 44.6 °F 38.1 °F 39.2 °F 81% 29.60 in 4.0 mi South 13.8 mph 27.6 mph 0.06 in Rain Rain
3:53 PM 45.0 °F 40.1 °F 39.0 °F 80% 29.58 in 3.0 mi South 9.2 mph 17.3 mph 0.12 in Rain Rain
4:17 PM 46.4 °F 39.0 °F 41.0 °F 81% 29.57 in 2.0 mi SSE 19.6 mph 35.7 mph 0.08 in Rain Rain
4:32 PM 46.4 °F 37.7 °F 41.0 °F 81% 29.56 in 4.0 mi SSE 26.5 mph 36.8 mph 0.10 in Rain Light Rain
4:53 PM 46.9 °F - 42.1 °F 83% 29.55 in 5.0 mi SSE 24.2 mph 34.5 mph 0.11 in Rain Light Rain
5:53 PM 46.9 °F - 42.1 °F 83% 29.53 in 6.0 mi SSE 20.7 mph 33.4 mph 0.06 in Rain Light Rain
6:43 PM 46.4 °F 39.5 °F 42.8 °F 87% 29.53 in 7.0 mi South 17.3 mph 35.7 mph 0.04 in Rain Light Rain
6:53 PM 46.9 °F - 42.1 °F 83% 29.53 in 6.0 mi South 16.1 mph 32.2 mph 0.06 in Rain Light Rain
7:01 PM 46.4 °F 39.8 °F 42.8 °F 87% 29.53 in 5.0 mi South 16.1 mph 28.8 mph 0.01 in Rain Light Rain
7:36 PM 46.4 °F 42.4 °F 42.8 °F 87% 29.51 in 5.0 mi South 8.1 mph 25.3 mph 0.07 in Rain Rain
7:53 PM 46.9 °F - 42.1 °F 83% 29.51 in 4.0 mi South 12.7 mph 23.0 mph 0.11 in Rain Rain
8:02 PM 46.4 °F 40.1 °F 42.8 °F 87% 29.50 in 5.0 mi South 15.0 mph 31.1 mph 0.01 in Rain Light Rain
8:53 PM 46.9 °F - - N/A% 29.50 in 5.0 mi South 20.7 mph 35.7 mph 0.10 in Rain Light Rain
9:11 PM 46.4 °F 39.5 °F - N/A% 29.50 in 5.0 mi South 17.3 mph 29.9 mph 0.05 in Rain Light Rain
10:08 PM 46.4 °F 40.7 °F - N/A% 29.47 in 6.0 mi South 12.7 mph 35.7 mph 0.02 in Rain Light Rain
10:48 PM 46.4 °F 39.0 °F - N/A% 29.47 in 4.0 mi South 19.6 mph 44.9 mph 0.10 in Rain Light Rain
10:53 PM 46.9 °F - - N/A% 29.47 in 4.0 mi South 20.7 mph 33.4 mph 0.11 in Rain Light Rain
11:53 PM 46.9 °F - - N/A% 29.47 in 4.0 mi South 18.4 mph 34.5 mph 0.15 in Rain Rain